Location: Strada George Coșbuc
(47.6577°N, 23.5639°E)
Time: 05:56:40
(UTC+02:00)

ISS - Pass Details

Date: 03 October 2017
Orbit: 402 x 407 km, 51.6° (Epoch: 23 November)

Event Time Altitude Azimuth Distance (km) Brightness Sun altitude
Rises 19:54:30 0° 264° (W) 2,329 2.0 -9.8°
Reaches altitude 10° 19:56:37 10° 270° (W) 1,471 0.6 -10.2°
Maximum altitude 19:59:51 49° 347° (NNW) 534 -3.1 -10.7°
Enters shadow 20:02:35 14° 61° (ENE) 1,283 -1.8 -11.2°
